Location: Dodgeville
(42.9600°N, 90.1300°W)
Time: 12:22:28
(UTC-05:00)

Amateur Radio Satellites - All Passes

Search period start: 25 September 2016 11:52
Search period end: 26 September 2016 11:52
Location: Dodgeville, 42.9600°N, 90.1300°W

Satellite Date Start Highest point End Downlink Frequencies (MHz)
Time Altitude Azimuth
AIST 2 25 Sep 11:56:15 11:58:18 13° 37° (NE) 12:00:22 435.215
VELOX 1 25 Sep 11:56:39 11:59:23 16° 92° (E) 12:02:05 145.980
DX 1 25 Sep 12:00:34 12:01:00 10° 89° (E) 12:01:25 434.975-435.025
CUBEBUG 1 25 Sep 12:07:49 12:11:32 27° 95° (E) 12:15:13 437.445
DELFI C3 25 Sep 12:11:12 12:13:14 14° 296° (WNW) 12:15:16 145.870
QB50P1 25 Sep 12:25:24 12:29:13 34° 263° (W) 12:33:04 145.935-145.965
Gurwin Techsat 1B 25 Sep 12:26:27 12:27:54 11° 56° (NE) 12:29:20 435.225
DUCHIFAT 1 25 Sep 12:26:27 12:30:20 37° 262° (W) 12:34:15 145.980
POPSAT HIP 1 25 Sep 12:39:04 12:42:33 25° 265° (W) 12:46:03 437.405
PHONESAT 2.4 25 Sep 12:40:36 12:43:05 25° 160° (SSE) 12:45:36 2401.200-2431.200
BUGSAT 1 25 Sep 12:40:36 12:44:42 63° 259° (WSW) 12:48:46 437.445
JAS-2 25 Sep 12:45:38 12:51:45 51° 263° (W) 12:58:42 435.910
AISAT 25 Sep 12:47:50 12:52:12 59° 101° (E) 12:56:30 437.250
50 SAT 25 Sep 12:56:16 12:59:57 74° 102° (ESE) 13:03:36 437.505
NANOSAT C BR1 25 Sep 12:58:23 13:01:06 17° 268° (W) 13:03:49 145.865
AUBIESAT-1 25 Sep 13:00:30 13:03:29 30° 103° (ESE) 13:06:25 437.475
SPROUT 25 Sep 13:02:08 13:06:13 44° 99° (E) 13:10:17 437.525
YUBILEINY 25 Sep 13:05:52 13:12:03 21° 61° (ENE) 13:18:10 435.215
UKube-1 25 Sep 13:10:22 13:14:33 47° 100° (E) 13:18:42 .
ESTCUBE 1 25 Sep 13:20:25 13:24:31 34° 291° (WNW) 13:28:35 437.505/2401.250
PCSat 25 Sep 13:20:46 13:25:19 26° 46° (NE) 13:29:50 145.827
AO-7 25 Sep 13:23:17 13:27:47 16° 45° (NE) 13:32:16 29.400- 29.500
Oscar 19 25 Sep 13:26:39 13:31:50 74° 74° (ENE) 13:37:03 437.125/150
VELOX 1 25 Sep 13:31:51 13:36:07 49° 288° (WNW) 13:40:21 145.980
AIST 2 25 Sep 13:33:15 13:37:28 83° 57° (ENE) 13:41:40 435.215
DX 1 25 Sep 13:33:21 13:37:42 75° 287° (WNW) 13:42:01 434.975-435.025
M-CUBED/EXP-1 PRIME 25 Sep 13:35:09 13:38:26 67° 290° (WNW) 13:41:39 437.505
CUBEBUG 1 25 Sep 13:44:03 13:47:46 28° 292° (WNW) 13:51:28 437.445
Cosmos 2504 25 Sep 13:52:42 13:55:45 13° 59° (ENE) 13:58:52 435.465 / 435.565
Gurwin Techsat 1B 25 Sep 14:01:38 14:06:55 75° 74° (ENE) 14:12:14 435.225
ITAMSAT 1 25 Sep 14:14:28 14:18:53 29° 65° (ENE) 14:23:19 435.822/435.867
PHONESAT 2.4 25 Sep 14:16:03 14:18:57 51° 176° (S) 14:21:51 2401.200-2431.200
AISAT 25 Sep 14:25:44 14:28:10 15° 298° (WNW) 14:30:37 437.250
TISAT 1 25 Sep 14:32:44 14:36:55 89° 109° (ESE) 14:41:05 437.305
AUBIESAT-1 25 Sep 14:35:43 14:37:45 15° 300° (WNW) 14:39:47 437.475
SPROUT 25 Sep 14:39:00 14:41:49 18° 296° (WNW) 14:44:39 437.525
UKube-1 25 Sep 14:47:23 14:50:14 17° 297° (WNW) 14:53:04 .
Cosmos 2491 25 Sep 14:56:37 15:04:51 47° 88° (E) 15:13:06 435.465 / 435.565
YUBILEINY 25 Sep 15:01:21 15:10:06 88° 266° (W) 15:18:48 435.215
PCSat 25 Sep 15:03:44 15:09:01 54° 245° (WSW) 15:14:16 145.827
ITUPSAT 1 25 Sep 15:05:06 15:09:32 36° 98° (E) 15:13:57 437.325
Oscar 19 25 Sep 15:09:02 15:11:42 14° 271° (W) 15:14:22 437.125/150
AO-7 25 Sep 15:10:48 15:18:58 63° 66° (ENE) 15:27:08 29.400- 29.500
SO-50 25 Sep 15:11:45 15:14:49 17° 110° (ESE) 15:17:52 436.795
SWISSCUBE 25 Sep 15:19:34 15:24:19 57° 101° (E) 15:29:01 437.505
BEESAT 25 Sep 15:32:50 15:37:38 70° 103° (ESE) 15:42:24 436.000
Cosmos 2504 25 Sep 15:43:10 15:50:31 70° 80° (E) 15:58:20 435.465 / 435.565
Gurwin Techsat 1B 25 Sep 15:44:37 15:47:25 14° 271° (W) 15:50:14 435.225
MOZHAYETS 4 25 Sep 15:47:21 15:50:33 18° 92° (E) 15:53:43
PHONESAT 2.4 25 Sep 15:52:06 15:54:53 37° 193° (SSW) 15:57:41 2401.200-2431.200
ITAMSAT 1 25 Sep 15:53:29 15:58:13 36° 262° (W) 16:03:00 435.822/435.867
BRITE-PL 25 Sep 15:55:16 15:55:35 10° 56° (NE) 15:55:53 437.365/2234.400
KKS-1 25 Sep 16:32:01 16:35:58 31° 97° (E) 16:39:54 437.445
ITUPSAT 1 25 Sep 16:43:13 16:47:12 26° 294° (WNW) 16:51:11 437.325
SO-50 25 Sep 16:50:00 16:54:49 64° 306° (NW) 16:59:35 436.795
HORYU 2 25 Sep 16:51:02 16:55:14 45° 71° (ENE) 16:59:27 437.375
Cosmos 2491 25 Sep 16:53:37 17:01:45 41° 289° (WNW) 17:10:00 435.465 / 435.565
O/OREOS (USA 219) 25 Sep 16:58:12 17:02:01 25° 56° (NE) 17:05:48 437.305
SWISSCUBE 25 Sep 16:58:29 17:01:39 18° 298° (WNW) 17:04:49 437.505
YUBILEINY 25 Sep 17:00:16 17:05:34 18° 284° (WNW) 17:10:52 435.215
CUBESAT XI-V 25 Sep 17:00:18 17:02:47 14° 89° (E) 17:05:13 437.345
AIST 1 25 Sep 17:02:07 17:06:26 80° 80° (E) 17:10:42
AO-7 25 Sep 17:05:08 17:12:11 30° 265° (W) 17:19:17 29.400- 29.500
BEESAT 25 Sep 17:12:12 17:14:51 15° 300° (WNW) 17:17:29 436.000
STARS 25 Sep 17:13:01 17:17:10 41° 99° (E) 17:21:17 437.465
MOZHAYETS 4 25 Sep 17:23:29 17:27:57 48° 288° (WNW) 17:32:25
NOAA 15 25 Sep 17:25:53 17:30:31 32° 66° (ENE) 17:35:10 137.62
BRITE-PL 25 Sep 17:27:22 17:32:58 62° 73° (ENE) 17:38:32 437.365/2234.400
PHONESAT 2.4 25 Sep 17:29:12 17:30:33 12° 209° (SSW) 17:31:55 2401.200-2431.200
LilacSat-2 25 Sep 17:31:04 17:33:46 19° 67° (ENE) 17:36:29 437.200
GOMX 1 25 Sep 17:31:35 17:36:19 32° 68° (ENE) 17:40:53 467.674
Cubesat XI-IV 25 Sep 17:32:31 17:37:02 29° 65° (ENE) 17:41:34 437.490
CUTE-I 25 Sep 17:33:30 17:38:03 30° 65° (ENE) 17:42:37 437.470
Cosmos 2504 25 Sep 17:37:52 17:43:12 22° 278° (W) 17:48:45 435.465 / 435.565
NOAA 18 25 Sep 17:51:36 17:56:34 37° 67° (ENE) 18:01:32 137.9125
DOVE 4 25 Sep 18:06:56 18:11:15 29° 69° (ENE) 18:15:24 437.250
KKS-1 25 Sep 18:08:46 18:12:25 26° 293° (WNW) 18:16:04 437.445
RS-15 25 Sep 18:21:11 18:22:32 10° 91° (E) 18:23:54 29.354- 29.394
HORYU 2 25 Sep 18:29:03 18:32:00 17° 267° (W) 18:34:59 437.375
SO-50 25 Sep 18:33:50 18:36:12 13° 327° (NNW) 18:38:35 436.795
CUBESAT XI-V 25 Sep 18:35:54 18:40:35 63° 286° (WNW) 18:45:11 437.345
O/OREOS (USA 219) 25 Sep 18:37:17 18:41:32 37° 254° (WSW) 18:45:44 437.305
CUSAT 1 25 Sep 18:48:41 18:53:37 26° 82° (E) 18:59:23 437.405
STARS 25 Sep 18:50:04 18:53:14 20° 295° (WNW) 18:56:23 437.465
HO-68 25 Sep 18:59:01 19:05:25 37° 62° (ENE) 19:11:49 435.675
Cosmos 2499 25 Sep 19:02:25 19:07:44 20° 65° (ENE) 19:13:15 435.465 / 435.565
CUTE 1.7 + AOD 2 25 Sep 19:04:08 19:07:09 19° 65° (ENE) 19:10:11 437.475
LilacSat-2 25 Sep 19:04:31 19:07:52 30° 263° (W) 19:11:15 437.200
CANX-2 25 Sep 19:04:32 19:07:49 22° 67° (ENE) 19:11:06 2200.000
NOAA 15 25 Sep 19:05:21 19:10:11 35° 263° (W) 19:15:05 137.62
BRITE-PL 25 Sep 19:07:41 19:11:46 20° 269° (W) 19:15:52 437.365/2234.400
GOMX 1 25 Sep 19:09:18 19:14:16 36° 264° (W) 19:19:06 467.674
SEEDS 25 Sep 19:10:57 19:13:32 16° 64° (ENE) 19:16:08 437.485
Cubesat XI-IV 25 Sep 19:12:01 19:16:57 38° 262° (W) 19:21:55 437.490
CUTE-I 25 Sep 19:13:05 19:17:58 37° 263° (W) 19:22:53 437.470
GONETS M04 25 Sep 19:23:15 19:31:12 36° 69° (ENE) 19:39:02
CUBEBUG 2 25 Sep 19:28:36 19:30:36 13° 63° (ENE) 19:32:37 437.445
NOAA 18 25 Sep 19:32:25 19:37:15 31° 264° (W) 19:42:05 137.9125
CINEMA 3 25 Sep 19:37:42 19:42:10 61° 74° (ENE) 19:46:28 145.822/145.860
AAUSAT CUBESAT 2 25 Sep 19:40:47 19:43:38 18° 65° (ENE) 19:46:29 437.432
DOVE 4 25 Sep 19:44:15 19:48:50 34° 263° (W) 19:53:15 437.250
UWE-3 25 Sep 19:51:40 19:54:07 15° 64° (ENE) 19:56:34 435.000/436.395/437.385
DANDE 25 Sep 19:54:42 19:58:59 30° 85° (E) 20:04:23 436.750
STRAND 1 25 Sep 20:13:24 20:18:31 60° 101° (E) 20:23:36 437.568
RS-15 25 Sep 20:20:47 20:31:55 57° 112° (ESE) 20:43:36 29.354- 29.394
COMPASS 1 25 Sep 20:20:56 20:25:03 61° 75° (ENE) 20:29:13 437.405
ZACube-1 25 Sep 20:25:56 20:29:10 22° 67° (ENE) 20:32:24 437.345
Oscar 11 25 Sep 20:28:33 20:32:02 24° 67° (ENE) 20:35:31 145.826/435.025
CUSAT 1 25 Sep 20:28:59 20:34:56 58° 286° (WNW) 20:42:19 437.405
CUTE 1.7 + AOD 2 25 Sep 20:38:44 20:42:42 39° 262° (W) 20:46:43 437.475
CANX-2 25 Sep 20:39:38 20:43:29 34° 264° (W) 20:47:22 2200.000
ISS 25 Sep 20:41:12 20:43:11 15° 132° (SE) 20:45:09 145.825
SEEDS 25 Sep 20:44:46 20:48:50 48° 261° (W) 20:52:57 437.485
HO-68 25 Sep 20:46:07 20:52:58 47° 260° (W) 20:59:50 435.675
AO-85 25 Sep 20:52:13 20:55:31 17° 110° (ESE) 20:58:42 145.980
Cosmos 2499 25 Sep 20:54:10 21:01:39 81° 263° (W) 21:09:42 435.465 / 435.565
CUBEBUG 2 25 Sep 21:02:37 21:06:47 59° 260° (W) 21:10:54 437.445
PRISM 25 Sep 21:08:59 21:12:08 21° 94° (E) 21:15:14 437.425
HUMSAT D 25 Sep 21:09:43 21:11:46 14° 63° (ENE) 21:13:49 437.325/437.525
AAUSAT CUBESAT 2 25 Sep 21:14:52 21:18:47 41° 262° (W) 21:22:46 437.432
CINEMA 3 25 Sep 21:17:34 21:19:39 13° 269° (W) 21:21:42 145.822/145.860
GONETS M04 25 Sep 21:19:51 21:28:20 54° 270° (W) 21:36:43
FUNcube-1 25 Sep 21:20:24 21:24:32 83° 76° (ENE) 21:28:41 145.935
DELFI C3 25 Sep 21:21:24 21:25:01 34° 71° (ENE) 21:28:41 145.870
UWE-3 25 Sep 21:26:10 21:30:13 48° 261° (W) 21:34:15 435.000/436.395/437.385
DANDE 25 Sep 21:36:48 21:41:29 38° 292° (WNW) 21:47:35 436.750
STRAND 1 25 Sep 21:53:42 21:57:13 19° 299° (WNW) 22:00:44 437.568
COMPASS 1 25 Sep 21:59:32 22:01:01 12° 271° (W) 22:02:30 437.405
ZACube-1 25 Sep 22:01:36 22:05:18 31° 263° (W) 22:09:00 437.345
Oscar 11 25 Sep 22:04:11 22:08:01 31° 264° (W) 22:11:53 145.826/435.025
ISS 25 Sep 22:16:03 22:19:18 69° 329° (NNW) 22:22:34 145.825
CUSAT 1 25 Sep 22:16:32 22:18:57 12° 309° (NW) 22:21:30 437.405
UNISAT 6 25 Sep 22:25:48 22:29:05 20° 93° (E) 22:32:24 437.425
AO-85 25 Sep 22:30:22 22:35:33 70° 305° (NW) 22:40:25 145.980
RS-15 25 Sep 22:33:15 22:44:38 52° 317° (NW) 22:56:35 29.354- 29.394
HUMSAT D 25 Sep 22:42:56 22:46:54 55° 260° (W) 22:50:58 437.325/437.525
PRISM 25 Sep 22:43:46 22:47:31 33° 290° (WNW) 22:51:13 437.425
ESTCUBE 1 25 Sep 22:44:19 22:48:02 26° 67° (ENE) 22:51:47 437.505/2401.250
M-CUBED/EXP-1 PRIME 25 Sep 22:48:58 22:51:34 16° 61° (ENE) 22:54:04 437.505
Cosmos 2499 25 Sep 22:49:58 22:53:38 14° 282° (WNW) 22:57:24 435.465 / 435.565
VELOX 1 25 Sep 22:54:56 22:57:50 17° 63° (ENE) 23:00:46 145.980
DX 1 25 Sep 22:56:35 22:58:06 12° 60° (ENE) 22:59:37 434.975-435.025
DELFI C3 25 Sep 22:57:05 22:59:57 19° 267° (W) 23:02:51 145.870
ANTELSAT 25 Sep 23:00:35 23:04:50 46° 99° (E) 23:09:08 437.575/2403.000
CUBEBUG 1 25 Sep 23:04:34 23:08:15 26° 67° (ENE) 23:11:56 437.445
TIGRISAT 25 Sep 23:21:44 23:26:07 75° 102° (ESE) 23:30:34 435.000
QB50P2 25 Sep 23:27:18 23:29:07 12° 90° (E) 23:30:56 145.880/145.840
POLYITAN 1 25 Sep 23:29:32 23:31:21 12° 90° (E) 23:33:11 437.675
50 SAT 25 Sep 23:33:44 23:37:03 34° 71° (ENE) 23:40:23 437.505
SO-50 25 Sep 23:40:55 23:44:33 22° 41° (NE) 23:48:06 436.795
AISAT 25 Sep 23:45:39 23:50:01 58° 73° (ENE) 23:54:25 437.250
AUBIESAT-1 25 Sep 23:46:29 23:50:30 54° 69° (ENE) 23:54:15 437.475
ISS 25 Sep 23:53:40 23:56:14 21° 348° (NNW) 23:58:49 145.825
JAS-2 25 Sep 23:53:57 00:00:37 29° 91° (E) 00:07:02 435.910
SPROUT 25 Sep 23:56:20 00:00:17 38° 71° (ENE) 00:04:14 437.525
UNISAT 6 26 Sep 00:01:52 00:05:55 38° 289° (WNW) 00:10:03 437.425
UKube-1 26 Sep 00:05:28 00:09:35 44° 71° (ENE) 00:13:43 .
QB50P1 26 Sep 00:08:51 00:12:41 33° 97° (E) 00:16:30 145.935-145.965
DUCHIFAT 1 26 Sep 00:09:29 00:13:10 29° 96° (E) 00:16:51 145.980
AO-85 26 Sep 00:14:06 00:16:48 14° 324° (NW) 00:19:25 145.980
ESTCUBE 1 26 Sep 00:20:37 00:24:42 33° 263° (W) 00:28:48 437.505/2401.250
M-CUBED/EXP-1 PRIME 26 Sep 00:21:43 00:25:49 47° 255° (WSW) 00:29:37 437.505
POPSAT HIP 1 26 Sep 00:21:58 00:26:03 46° 99° (E) 00:30:05 437.405
BUGSAT 1 26 Sep 00:22:28 00:25:02 16° 93° (E) 00:27:35 437.445
DX 1 26 Sep 00:29:16 00:33:39 78° 258° (WSW) 00:38:03 434.975-435.025
VELOX 1 26 Sep 00:29:35 00:33:55 50° 260° (W) 00:38:16 145.980
ANTELSAT 26 Sep 00:38:15 00:41:13 18° 295° (WNW) 00:44:13 437.575/2403.000
NANOSAT C BR1 26 Sep 00:39:53 00:44:05 72° 102° (ESE) 00:48:16 145.865
CUBEBUG 1 26 Sep 00:40:30 00:44:25 30° 264° (W) 00:48:21 437.445
RS-15 26 Sep 00:51:12 01:00:59 27° 350° (N) 01:10:59 29.354- 29.394
TIGRISAT 26 Sep 01:00:37 01:02:14 12° 299° (WNW) 01:03:52 435.000
QB50P2 26 Sep 01:01:08 01:05:17 58° 286° (WNW) 01:09:26 145.880/145.840
POLYITAN 1 26 Sep 01:03:22 01:07:31 58° 286° (WNW) 01:11:39 437.675
Cosmos 2491 26 Sep 01:06:02 01:12:57 25° 64° (ENE) 01:19:48 435.465 / 435.565
BEESAT 26 Sep 01:06:14 01:07:38 11° 58° (ENE) 01:09:02 436.000
50 SAT 26 Sep 01:08:28 01:10:41 15° 267° (W) 01:12:54 437.505
SO-50 26 Sep 01:20:52 01:25:21 55° 241° (WSW) 01:29:43 436.795
AUBIESAT-1 26 Sep 01:23:13 01:25:08 13° 262° (W) 01:27:01 437.475
AISAT 26 Sep 01:24:33 01:26:52 14° 269° (W) 01:29:10 437.250
TISAT 1 26 Sep 01:24:47 01:28:58 73° 74° (ENE) 01:33:09 437.305
BEESAT 2 26 Sep 01:29:28 01:32:05 17° 111° (ESE) 01:34:44 435.950
ISS 26 Sep 01:31:07 01:33:34 19° 8° (N) 01:36:02 145.825
SPROUT 26 Sep 01:33:14 01:36:20 19° 267° (W) 01:39:27 437.525
Oscar 19 26 Sep 01:37:59 01:42:08 24° 94° (E) 01:46:14 437.125/150
JAS-2 26 Sep 01:38:15 01:46:02 64° 290° (WNW) 01:53:32 435.910
UKube-1 26 Sep 01:42:58 01:45:50 17° 267° (W) 01:48:43 .
QB50P1 26 Sep 01:45:01 01:48:17 22° 294° (WNW) 01:51:31 145.935-145.965
DUCHIFAT 1 26 Sep 01:45:21 01:48:44 24° 293° (WNW) 01:52:07 145.980
BUGSAT 1 26 Sep 01:56:50 02:00:35 40° 289° (WNW) 02:04:21 437.445
POPSAT HIP 1 26 Sep 01:58:47 02:01:28 17° 296° (WNW) 02:04:10 437.405
YUBILEINY 26 Sep 02:09:32 02:15:44 22° 79° (ENE) 02:21:56 435.215
ITUPSAT 1 26 Sep 02:12:32 02:17:04 46° 70° (ENE) 02:21:39 437.325
BEESAT 3 26 Sep 02:14:43 02:18:37 75° 305° (NW) 02:22:33 437.485
Gurwin Techsat 1B 26 Sep 02:17:24 02:21:54 27° 95° (E) 02:26:22 435.225
NANOSAT C BR1 26 Sep 02:17:49 02:19:15 12° 299° (WNW) 02:20:39 145.865
SWISSCUBE 26 Sep 02:26:40 02:31:23 73° 75° (ENE) 02:36:10 437.505
BEESAT 26 Sep 02:39:53 02:44:38 88° 82° (E) 02:49:26 436.000
MOZHAYETS 4 26 Sep 02:50:17 02:53:33 20° 64° (ENE) 02:56:51
Cosmos 2491 26 Sep 03:01:56 03:10:48 78° 265° (W) 03:19:35 435.465 / 435.565
BEESAT 2 26 Sep 03:05:46 03:09:34 44° 309° (NW) 03:13:25 435.950
ISS 26 Sep 03:07:24 03:10:37 49° 28° (NNE) 03:13:50 145.825
RS-15 26 Sep 03:07:56 03:18:42 33° 25° (NNE) 03:29:24 29.354- 29.394
AO-7 26 Sep 03:13:07 03:18:15 17° 89° (E) 03:23:21 29.400- 29.500
Oscar 19 26 Sep 03:16:45 03:21:37 43° 291° (WNW) 03:26:27 437.125/150
JAS-2 26 Sep 03:25:26 03:29:32 15° 309° (NW) 03:33:37 435.910
KKS-1 26 Sep 03:30:48 03:34:46 33° 69° (ENE) 03:38:46 437.445
AIST 2 26 Sep 03:33:35 03:35:34 13° 109° (ESE) 03:37:33 435.215
ITUPSAT 1 26 Sep 03:51:41 03:55:08 20° 267° (W) 03:58:36 437.325
BEESAT 3 26 Sep 03:55:41 03:56:58 11° 324° (NW) 03:58:17 437.485
Gurwin Techsat 1B 26 Sep 03:57:00 04:01:57 40° 291° (WNW) 04:06:52 435.225
YUBILEINY 26 Sep 04:02:40 04:11:29 80° 279° (W) 04:20:18 435.215
CUBESAT XI-V 26 Sep 04:04:29 04:07:24 17° 63° (ENE) 04:10:21 437.345
ITAMSAT 1 26 Sep 04:04:42 04:09:56 73° 103° (ESE) 04:15:09 435.822/435.867
PCSat 26 Sep 04:05:03 04:08:24 17° 105° (ESE) 04:11:46 145.827
SWISSCUBE 26 Sep 04:07:44 04:09:42 12° 271° (W) 04:11:41 437.505
STARS 26 Sep 04:10:17 04:14:24 41° 70° (ENE) 04:18:32 437.465
Cosmos 2504 26 Sep 04:22:47 04:30:02 57° 92° (E) 04:37:01 435.465 / 435.565
MOZHAYETS 4 26 Sep 04:26:01 04:30:23 45° 261° (W) 04:34:48
ISS 26 Sep 04:44:17 04:46:55 23° 225° (SW) 04:49:35 145.825
Cosmos 2491 26 Sep 05:01:29 05:06:04 15° 286° (WNW) 05:10:36 435.465 / 435.565
AO-7 26 Sep 05:03:47 05:12:08 86° 108° (ESE) 05:20:26 29.400- 29.500
KKS-1 26 Sep 05:07:43 05:11:22 24° 265° (W) 05:15:01 437.445
AIST 2 26 Sep 05:09:28 05:13:32 62° 306° (NW) 05:17:39 435.215
CUSAT 1 26 Sep 05:20:59 05:27:17 25° 62° (ENE) 05:32:58 437.405
RS-15 26 Sep 05:21:11 05:33:40 76° 53° (NE) 05:45:50 29.354- 29.394
AO-85 26 Sep 05:22:10 05:25:06 18° 39° (NE) 05:27:54 145.980
AIST 1 26 Sep 05:32:01 05:36:11 44° 93° (E) 05:40:22
BRITE-PL 26 Sep 05:33:21 05:36:29 17° 89° (E) 05:39:28 437.365/2234.400
CUBESAT XI-V 26 Sep 05:39:41 05:44:18 59° 260° (W) 05:48:59 437.345
ITAMSAT 1 26 Sep 05:45:39 05:48:48 16° 301° (WNW) 05:51:57 435.822/435.867
PCSat 26 Sep 05:45:47 05:51:10 71° 302° (WNW) 05:56:37 145.827
STARS 26 Sep 05:47:48 05:50:55 19° 267° (W) 05:54:04 437.465
STRAND 1 26 Sep 05:54:28 05:56:47 13° 58° (ENE) 05:59:06 437.568
YUBILEINY 26 Sep 06:04:20 06:09:49 18° 301° (WNW) 06:15:20 435.215
NOAA 18 26 Sep 06:14:09 06:16:47 13° 90° (E) 06:19:23 137.9125
HORYU 2 26 Sep 06:17:03 06:21:31 81° 102° (ESE) 06:25:59 437.375
Cosmos 2504 26 Sep 06:17:44 06:23:49 27° 291° (WNW) 06:29:45 435.465 / 435.565
DANDE 26 Sep 06:30:04 06:37:41 38° 69° (ENE) 06:45:04 436.750
LilacSat-2 26 Sep 06:36:46 06:39:57 24° 95° (E) 06:43:08 437.200
AIST 2 26 Sep 06:51:54 06:52:52 11° 326° (NNW) 06:53:50 435.215
AO-7 26 Sep 06:57:44 07:03:57 24° 309° (NW) 07:10:11 29.400- 29.500
AO-85 26 Sep 07:01:51 07:05:58 59° 240° (WSW) 07:09:48 145.980
CUSAT 1 26 Sep 07:02:17 07:10:10 74° 264° (W) 07:16:53 437.405
GOMX 1 26 Sep 07:10:20 07:14:49 68° 101° (E) 07:19:02 467.674
BRITE-PL 26 Sep 07:10:35 07:15:24 51° 288° (WNW) 07:19:48 437.365/2234.400
AIST 1 26 Sep 07:11:08 07:14:02 17° 290° (WNW) 07:16:56
O/OREOS (USA 219) 26 Sep 07:11:52 07:15:22 22° 102° (ESE) 07:18:54 437.305
NOAA 15 26 Sep 07:18:55 07:24:16 81° 104° (ESE) 07:29:33 137.62
Cubesat XI-IV 26 Sep 07:27:41 07:33:04 79° 104° (ESE) 07:38:26 437.490
CUTE-I 26 Sep 07:28:30 07:33:53 81° 104° (ESE) 07:39:15 437.470
STRAND 1 26 Sep 07:30:07 07:35:13 88° 257° (WSW) 07:40:21 437.568
PCSat 26 Sep 07:32:32 07:35:35 15° 323° (NW) 07:38:38 145.827
CINEMA 3 26 Sep 07:33:13 07:34:49 12° 90° (E) 07:36:26 145.822/145.860
RS-15 26 Sep 07:34:44 07:45:06 34° 256° (WSW) 07:55:17 29.354- 29.394
DOVE 4 26 Sep 07:41:58 07:46:10 61° 100° (E) 07:50:15 437.250
Cosmos 2499 26 Sep 07:44:36 07:47:19 12° 77° (ENE) 07:50:01 435.465 / 435.565
NOAA 18 26 Sep 07:52:34 07:58:04 81° 286° (WNW) 08:03:32 137.9125
HORYU 2 26 Sep 07:55:55 07:57:26 12° 300° (WNW) 07:58:56 437.375
PRISM 26 Sep 07:59:32 08:02:23 18° 64° (ENE) 08:05:16 437.425
LilacSat-2 26 Sep 08:11:02 08:14:10 24° 291° (WNW) 08:17:18 437.200
DANDE 26 Sep 08:12:40 08:20:45 55° 268° (W) 08:28:29 436.750
HO-68 26 Sep 08:12:41 08:19:03 34° 96° (E) 08:25:23 435.675
CUTE 1.7 + AOD 2 26 Sep 08:22:35 08:26:26 31° 96° (E) 08:30:18 437.475
CANX-2 26 Sep 08:23:19 08:27:20 37° 97° (E) 08:31:19 2200.000
GONETS M04 26 Sep 08:25:33 08:33:29 39° 85° (E) 08:41:26
SEEDS 26 Sep 08:27:57 08:31:31 25° 95° (E) 08:35:03 437.485
CUSAT 1 26 Sep 08:47:02 08:50:35 14° 285° (WNW) 08:53:56 437.405
O/OREOS (USA 219) 26 Sep 08:50:15 08:54:31 38° 299° (WNW) 08:58:50 437.305
GOMX 1 26 Sep 08:50:20 08:52:16 13° 300° (WNW) 08:54:08 467.674
CUBEBUG 2 26 Sep 08:52:28 08:56:01 25° 95° (E) 08:59:37 437.445
BEESAT 3 26 Sep 08:54:59 08:56:38 12° 37° (NE) 08:58:18 437.485
AAUSAT CUBESAT 2 26 Sep 08:56:14 08:59:51 27° 95° (E) 09:03:26 437.432
NOAA 15 26 Sep 09:00:24 09:03:21 15° 302° (WNW) 09:06:16 137.62
CINEMA 3 26 Sep 09:08:15 09:12:20 58° 286° (WNW) 09:16:29 145.822/145.860
FUNcube-1 26 Sep 09:08:27 09:10:56 15° 91° (E) 09:13:25 145.935
Cubesat XI-IV 26 Sep 09:09:23 09:12:29 16° 301° (WNW) 09:15:33 437.490
CUTE-I 26 Sep 09:10:16 09:13:15 15° 301° (WNW) 09:16:14 437.470
STRAND 1 26 Sep 09:14:32 09:15:07 10° 273° (W) 09:15:41 437.568
UWE-3 26 Sep 09:14:34 09:18:19 29° 96° (E) 09:22:08 435.000/436.395/437.385
DOVE 4 26 Sep 09:21:29 09:23:21 13° 298° (WNW) 09:25:10 437.250
UNISAT 6 26 Sep 09:25:58 09:29:04 20° 65° (ENE) 09:32:10 437.425
Cosmos 2499 26 Sep 09:32:00 09:39:11 81° 96° (E) 09:46:15 435.465 / 435.565
PRISM 26 Sep 09:33:26 09:37:23 41° 261° (W) 09:41:22 437.425
NOAA 18 26 Sep 09:35:33 09:37:51 13° 305° (NW) 09:40:10 137.9125
COMPASS 1 26 Sep 09:38:08 09:42:22 78° 286° (WNW) 09:46:35 437.405
BEESAT 2 26 Sep 09:45:41 09:48:30 18° 42° (NE) 09:51:17 435.950
ZACube-1 26 Sep 09:48:06 09:52:12 42° 98° (E) 09:56:22 437.345
Oscar 11 26 Sep 09:49:53 09:54:02 42° 98° (E) 09:58:11 145.826/435.025
CUTE 1.7 + AOD 2 26 Sep 09:58:40 10:02:08 24° 293° (WNW) 10:05:35 437.475
CANX-2 26 Sep 09:59:43 10:02:57 21° 294° (WNW) 10:06:10 2200.000
HO-68 26 Sep 10:00:08 10:06:57 49° 294° (WNW) 10:13:44 435.675
DANDE 26 Sep 10:00:09 10:01:46 11° 286° (WNW) 10:03:22 436.750
ANTELSAT 26 Sep 10:00:18 10:04:21 44° 72° (ENE) 10:08:25 437.575/2403.000
SEEDS 26 Sep 10:03:29 10:07:11 29° 291° (WNW) 10:10:52 437.485
JAS-2 26 Sep 10:09:44 10:13:08 15° 50° (NE) 10:16:42 435.910
TIGRISAT 26 Sep 10:21:10 10:25:25 71° 74° (ENE) 10:29:40 435.000
GONETS M04 26 Sep 10:21:37 10:30:05 49° 286° (WNW) 10:38:38
QB50P2 26 Sep 10:21:39 10:23:08 12° 61° (ENE) 10:24:36 145.880/145.840
POLYITAN 1 26 Sep 10:23:54 10:25:22 12° 61° (ENE) 10:26:49 437.675
HUMSAT D 26 Sep 10:25:42 10:28:59 21° 94° (E) 10:32:17 437.325/437.525
CUBEBUG 2 26 Sep 10:28:56 10:32:37 30° 291° (WNW) 10:36:24 437.445
BEESAT 3 26 Sep 10:30:57 10:34:57 82° 59° (ENE) 10:38:55 437.485
AAUSAT CUBESAT 2 26 Sep 10:31:43 10:35:14 26° 292° (WNW) 10:38:44 437.432
DELFI C3 26 Sep 10:32:16 10:36:12 49° 99° (E) 10:40:05 145.870
FUNcube-1 26 Sep 10:43:16 10:47:26 51° 287° (WNW) 10:51:42 145.935
UWE-3 26 Sep 10:51:07 10:54:42 26° 292° (WNW) 10:58:20 435.000/436.395/437.385
UNISAT 6 26 Sep 11:01:33 11:05:32 38° 262° (W) 11:09:32 437.425
QB50P1 26 Sep 11:02:10 11:05:48 28° 68° (ENE) 11:09:25 145.935-145.965
DUCHIFAT 1 26 Sep 11:02:19 11:05:45 25° 68° (ENE) 11:09:11 145.980
BUGSAT 1 26 Sep 11:13:43 11:15:55 14° 63° (ENE) 11:18:06 437.445
POPSAT HIP 1 26 Sep 11:15:11 11:19:05 38° 70° (ENE) 11:22:59 437.405
BEESAT 2 26 Sep 11:22:41 11:26:38 56° 240° (WSW) 11:30:34 435.950
ZACube-1 26 Sep 11:25:11 11:28:12 19° 294° (WNW) 11:31:16 437.345
Oscar 11 26 Sep 11:26:47 11:29:52 19° 295° (WNW) 11:32:57 145.826/435.025
Cosmos 2499 26 Sep 11:28:34 11:33:12 18° 297° (WNW) 11:37:50 435.465 / 435.565
PHONESAT 2.4 26 Sep 11:30:45 11:32:30 15° 154° (SSE) 11:34:15 2401.200-2431.200
NANOSAT C BR1 26 Sep 11:32:33 11:36:39 57° 73° (ENE) 11:40:47 145.865
ANTELSAT 26 Sep 11:38:35 11:41:19 16° 268° (W) 11:44:02 437.575/2403.000
